Flag for U.S.A. Weather past 2 weeks in St. Augustine, Florida, U.S.A.

Now
80 °F

Overcast.


Feels Like: 85 °F
Forecast: 75 / 82 °F
Wind: 10 mph from Southeast

Location: St. Augustine Airport

Current Time: Aug 30, 2015 at 8:45:10 AM

Latest Report: Aug 30, 2015 at 7:58 AM


Visibility: 10 mi

Pressure: 30.03 "Hg

Humidity: 85%

Dew point: 75 °F

Location of St. AugustineLocation

Historic Weather in St. Augustine — Graph

°F

St. Augustine temperature yesterday

Maximum temperature yesterday: 86 °F (at 1:03 PM)
Minimum temperature yesterday: 75 °F (at 5:58 AM)
Average temperature yesterday: 81 °F

Past Weeks' High & Low Weather Summary

 TemperatureHumidityPressure
High92 °F (Aug 25, 1:58 PM)97% (Aug 16, 3:58 AM)30.14 "Hg (Aug 16, 3:58 AM)
Low72 °F (Aug 26, 6:59 PM)52% (Aug 25, 1:58 PM)29.87 "Hg (Aug 25, 4:58 PM)
Average80 °F85%30.01 "Hg
* Reported Aug 15 7:58 AM — Aug 30 7:58 AM, St. Augustine, Weather by CustomWeather, © 2015

Note: Actual official high and low records may vary slightly from our data, if they occured in-between our weather recording intervals... More about our weather records

Advertising

St. Augustine weather history for previous 24 hours

 ConditionsComfort  
Time TempWeatherWind HumidityBarometerVisibility
7:58 AM
Sun, Aug 30
80 °FOvercast.10 mph85%30.03 "Hg10 mi
6:58 AM79 °FOvercast.10 mph90%30.02 "Hg10 mi
5:58 AM80 °FPassing clouds.9 mph85%30.02 "Hg10 mi
4:58 AM79 °FPassing clouds.15 mph84%30.00 "Hg10 mi
3:58 AM77 °FPassing clouds.9 mph88%30.00 "Hg10 mi
2:58 AM77 °FPassing clouds.13 mph90%30.01 "Hg10 mi
1:58 AM75 °FLight rain. Overcast.12 mph88%30.08 "Hg10 mi
12:58 AM74 °FRain. Mostly cloudy.15 mph91%30.08 "Hg10 mi
11:58 PM
Sat, Aug 29
80 °FLight rain. Passing clouds.13 mph87%30.10 "Hg10 mi
10:58 PM82 °FPartly cloudy.16 mph85%30.08 "Hg10 mi
9:58 PM78 °FPassing clouds.6 mph90%30.08 "Hg10 mi
8:58 PM78 °FPartly cloudy.3 mph90%30.06 "Hg10 mi
7:58 PM78 °FPartly sunny.No wind90%30.06 "Hg7 mi
6:58 PM78 °FBroken clouds.No wind87%30.06 "Hg10 mi
6:02 PM82 °FThundershowers. Scattered clouds.9 mph79%30.05 "Hg10 mi
5:02 PM84 °FScattered clouds.9 mph74%30.06 "Hg10 mi
3:58 PM85 °FPassing clouds.14 mph77%30.06 "Hg10 mi
2:58 PM84 °FPartly sunny.12 mph77%30.08 "Hg7 mi
2:04 PM86 °FPartly sunny.9 mph70%30.11 "Hg7 mi
1:58 PM86 °FScattered clouds.10 mph72%30.11 "Hg10 mi
1:03 PM86 °FScattered clouds.8 mph70%30.12 "Hg10 mi
12:58 PM85 °FPartly sunny.9 mph75%30.12 "Hg10 mi
11:58 AM85 °FSunny.9 mph75%30.12 "Hg10 mi
10:58 AM85 °FScattered clouds.5 mph70%30.11 "Hg10 mi
10:01 AM82 °FSunny.No wind79%30.12 "Hg10 mi
8:58 AM80 °FPassing clouds.3 mph87%30.11 "Hg10 mi
Weather by CustomWeather, © 2015

See weather overviewHow to use our weather pages